{"data":{"norad_id":62051,"epoch":"2026-09-21T22:33:34.400736Z","epoch_age_seconds":61162,"freshness":"FRESH","line1":"1 62051U 24216V   26264.93998149  .00015406  00000+0  56809-3 0  9997","line2":"2 62051  42.9978 235.4334 0001203 260.4060  99.6656 15.27586872103807","mean_motion":15.27586872,"eccentricity":0.0001203,"inclination_deg":42.9978,"raan_deg":235.4334,"arg_perigee_deg":260.406,"mean_anomaly_deg":99.6656,"bstar":0.00056809,"rev_number":10380,"period_min":94.266324645398,"perigee_km":482.20312066468,"apogee_km":483.85391708853,"semimajor_km":6861.1655188766,"source":"CELESTRAK","updated_at":"2026-09-22T09:00:49.490115Z"}}